Location: Ponte Samoggia
(44.5667°N, 11.1333°E)
Time: 16:24:47
(UTC+00:00)

ERBS - Pass Details

Date: 26 May 2022
Orbit: 358 x 375 km, 57.0° (Epoch: 06 July)

Event Time Altitude Azimuth Distance (km) Brightness Sun altitude
Exits shadow 00:26:27 36° 54° (NE) 613 3.5 -22.2°
Drops below altitude 10° 00:28:24 10° 50° (NE) 1,376 5.7 -22.1°
Sets 00:30:27 0° 50° (NE) 2,236 6.9 -22.0°
